Jackson, TN

8:24 AM CST on February 07, 2016 (GMT -0600)
McKellar-Sipes Regional

Weather History for KMKL - January, 2013

Change the Weather History Date:

Saturday, January 12, 2013

  Actual Average Record
Temperature  
Mean Temperature 68 °F 38 °F  
Max Temperature 73 °F 48 °F 73 °F (2013)
Min Temperature 63 °F 28 °F -1 °F (1962)
Degree Days  
Heating Degree Days 0 27  
Month to date heating degree days 258 324  
Since 1 July heating degree days 1620 1742  
Cooling Degree Days 3 0  
Month to date cooling degree days 3 0  
Year to date cooling degree days 3 0  
Growing Degree Days 18 (Base 50)    
Moisture  
Dew Point 64 °F    
Average Humidity 83    
Maximum Humidity 93    
Minimum Humidity 73    
Precipitation  
Precipitation 0.02 in 0.11 in 1.58 in (1989)
Month to date precipitation 1.93 1.55  
Year to date precipitation 1.93 1.55  
Snow  
Snow 0.00 in 0.00 in 4.70 in (1975)
Month to date snowfall 0.0 0.8  
Since 1 July snowfall 0.5 1.1  
Snow Depth 0.00 in    
Sea Level Pressure  
Sea Level Pressure 29.89 in    
Wind  
Wind Speed 10 mph (South)    
Max Wind Speed 18 mph    
Max Gust Speed 28 mph    
Visibility 10 miles    
Events Rain    
T = Trace of Precipitation, MM = Missing Value Source: NWS Daily Summary

Daily Weather History Graph

Daily Weather History Graph

Search for Another Location

Airport or City:

Trip Planner

Search our weather history database for the weather conditions in past years. The results will help you decide how hot, cold, wet, or windy it might be!

Date:

Astronomy

Jan. 12, 2013 Rise Set
Actual Time 7:05 AM CST 5:03 PM CST
Civil Twilight 6:37 AM CST 5:31 PM CST
Nautical Twilight 6:05 AM CST 6:02 PM CST
Astronomical Twilight 5:35 AM CST 6:33 PM CST
Moon 7:27 AM CST (1/12) 6:27 PM CST (1/12)
Length of Visible Light 10h 53m
Length of Day
9h 58m
New Moon, 1% of the Moon is Illuminated
Jan 12
New Moon
Jan 18
First Quarter
Jan 26
Full
Feb 3
Last Quarter
Feb 10
New

Hourly Weather History & Observations

Time (CST) Temp. Dew Point Humidity Pressure Visibility Wind Dir Wind Speed Gust Speed Precip Events Conditions
12:53 AM 64.9 °F 62.1 °F 90% 29.96 in 10.0 mi South 10.4 mph - N/A   Mostly Cloudy
1:04 AM 64.4 °F 62.6 °F 94% 29.97 in 10.0 mi South 10.4 mph - N/A   Mostly Cloudy
1:14 AM 64.4 °F 62.6 °F 94% 29.97 in 10.0 mi South 10.4 mph - N/A   Mostly Cloudy
1:53 AM 66.0 °F 62.1 °F 87% 29.97 in 10.0 mi South 10.4 mph 18.4 mph N/A   Overcast
2:53 AM 66.0 °F 63.0 °F 90% 29.96 in 10.0 mi SSW 8.1 mph - N/A   Overcast
3:53 AM 66.9 °F 64.0 °F 90% 29.95 in 10.0 mi South 6.9 mph - N/A   Overcast
4:38 AM 66.2 °F 64.4 °F 94% 29.95 in 10.0 mi South 5.8 mph - 0.00 in   Overcast
4:53 AM 66.0 °F 64.0 °F 93% 29.95 in 10.0 mi South 5.8 mph - 0.00 in   Overcast
5:10 AM 66.2 °F 64.4 °F 94% 29.95 in 10.0 mi South 5.8 mph - N/A   Overcast
5:23 AM 66.2 °F 64.4 °F 94% 29.96 in 10.0 mi South 4.6 mph - N/A   Overcast
5:53 AM 66.0 °F 64.0 °F 93% 29.96 in 10.0 mi South 4.6 mph - N/A   Overcast
6:53 AM 66.0 °F 64.0 °F 93% 29.97 in 10.0 mi SSE 4.6 mph - 0.01 in   Overcast
7:53 AM 66.0 °F 64.0 °F 93% 29.96 in 10.0 mi SSE 4.6 mph - N/A   Overcast
8:53 AM 66.9 °F 64.9 °F 93% 29.97 in 10.0 mi South 8.1 mph - N/A   Overcast
9:49 AM 69.8 °F 64.4 °F 83% 29.98 in 10.0 mi South 6.9 mph - N/A   Overcast
9:53 AM 69.1 °F 64.9 °F 87% 29.97 in 10.0 mi South 6.9 mph - N/A   Overcast
10:53 AM 69.1 °F 64.9 °F 87% 29.95 in 10.0 mi South 9.2 mph 17.3 mph N/A   Overcast
11:08 AM 69.8 °F 64.4 °F 83% 29.95 in 10.0 mi South 9.2 mph - N/A   Overcast
11:37 AM 69.8 °F 64.4 °F 83% 29.92 in 10.0 mi South 13.8 mph - N/A   Overcast
11:53 AM 69.1 °F 64.9 °F 87% 29.90 in 10.0 mi South 11.5 mph 21.9 mph 0.00 in   Overcast
12:53 PM 69.1 °F 64.0 °F 84% 29.88 in 10.0 mi South 13.8 mph 20.7 mph N/A   Overcast
1:10 PM 69.8 °F 64.4 °F 83% 29.89 in 6.0 mi South 10.4 mph - 0.00 in Rain Rain
1:53 PM 70.0 °F 64.9 °F 84% 29.87 in 10.0 mi SSW 11.5 mph 17.3 mph 0.01 in   Overcast
2:53 PM 72.0 °F 64.9 °F 78% 29.86 in 10.0 mi South 13.8 mph 19.6 mph N/A   Mostly Cloudy
3:53 PM 72.0 °F 64.0 °F 76% 29.84 in 10.0 mi South 8.1 mph 18.4 mph N/A   Mostly Cloudy
4:53 PM 72.0 °F 63.0 °F 73% 29.83 in 10.0 mi South 12.7 mph 18.4 mph N/A   Partly Cloudy
5:53 PM 70.0 °F 64.0 °F 81% 29.81 in 10.0 mi SSE 10.4 mph 17.3 mph N/A   Clear
7:39 PM 69.8 °F 64.4 °F 83% 29.81 in 10.0 mi South 10.4 mph 17.3 mph N/A   Mostly Cloudy
7:53 PM 71.1 °F 64.0 °F 78% 29.81 in 10.0 mi South 10.4 mph 18.4 mph N/A   Overcast
8:53 PM 71.1 °F 64.0 °F 78% 29.78 in 10.0 mi South 12.7 mph 25.3 mph N/A   Overcast
9:01 PM 71.6 °F 64.4 °F 78% 29.79 in 10.0 mi South 15.0 mph 24.2 mph N/A   Overcast
9:16 PM 71.6 °F 64.4 °F 78% 29.79 in 10.0 mi South 11.5 mph 24.2 mph N/A   Overcast
9:53 PM 71.1 °F 64.0 °F 78% 29.78 in 10.0 mi South 11.5 mph 21.9 mph N/A   Overcast
10:09 PM 71.6 °F 64.4 °F 78% 29.79 in 10.0 mi South 10.4 mph 19.6 mph N/A   Overcast
10:53 PM 71.1 °F 64.0 °F 78% 29.76 in 10.0 mi South 13.8 mph 26.5 mph N/A   Mostly Cloudy
11:25 PM 71.6 °F 62.6 °F 73% 29.78 in 10.0 mi South 16.1 mph 26.5 mph N/A   Overcast
11:39 PM 71.6 °F 62.6 °F 73% 29.78 in 10.0 mi South 11.5 mph 24.2 mph N/A   Overcast
11:53 PM 71.1 °F 63.0 °F 75% 29.77 in 10.0 mi South 12.7 mph 20.7 mph N/A   Mostly Cloudy